Irkutsk, Russia

5:24 PM +08 on November 17, 2018 (GMT +0800)
Irkutsk

Weather History for UIII - October, 2018

Change the Weather History Date:

Friday, October 12, 2018

  Actual Average Record
Temperature  
Mean Temperature 41 °F -  
Max Temperature 52 °F - - ()
Min Temperature 30 °F - - ()
Degree Days  
Heating Degree Days 24    
Moisture  
Dew Point 35 °F    
Average Humidity 77    
Maximum Humidity 100    
Minimum Humidity 30    
Precipitation  
Precipitation 0.00 in - - ()
Sea Level Pressure  
Sea Level Pressure 30.20 in    
Wind  
Wind Speed 7 mph ()    
Max Wind Speed 18 mph    
Max Gust Speed -    
Visibility 6.2 miles    
Events Rain    
T = Trace of Precipitation, MM = Missing Value Source: Averaged Metar Reports

Daily Weather History Graph

Daily Weather History Graph

Search for Another Location

Airport or City:

Astronomy

Oct. 12, 2018 Rise Set
Actual Time 7:21 AM +08 6:15 PM +08
Civil Twilight 6:47 AM +08 6:49 PM +08
Nautical Twilight 6:08 AM +08 7:28 PM +08
Astronomical Twilight 5:28 AM +08 8:08 PM +08
Moon 10:40 AM +08 (10/12) 8:10 PM +08 (10/12)
Length of Visible Light 12h 02m
Length of Day
10h 54m
Waxing Crescent, 11% of the Moon is Illuminated
Oct 12
Waxing Crescent
Oct 17
First Quarter
Oct 25
Full
Nov 1
Last Quarter
Nov 8
New

Hourly Weather History & Observations

Time (+08) Temp. Windchill Dew Point Humidity Pressure Visibility Wind Dir Wind Speed Gust Speed Precip Events Conditions
12:00 AM 42.8 °F 35.2 °F 39.2 °F 87% 30.15 in - WNW 15.7 mph - N/A   Clear
12:30 AM 42.8 °F 34.7 °F 39.2 °F 87% 30.15 in 6.2 mi NW 17.9 mph - N/A Rain Light Rain Showers
1:00 AM 41.0 °F 33.6 °F 39.2 °F 93% 30.15 in 6.2 mi WNW 13.4 mph - N/A   Scattered Clouds
1:30 AM 42.8 °F 37.6 °F 39.2 °F 87% 30.15 in 6.2 mi WNW 8.9 mph - N/A   Scattered Clouds
2:00 AM 42 °F - 37 °F 78% 30.24 in - West 4.5 mph - - Rain Light Rain Showers
2:00 AM 41.0 °F 35.4 °F 39.2 °F 93% 30.18 in 6.2 mi WNW 8.9 mph - N/A Rain Light Rain Showers
2:30 AM 41.0 °F 35.4 °F 39.2 °F 93% 30.18 in 6.2 mi WNW 8.9 mph - N/A Rain Light Rain Showers
3:00 AM 41.0 °F 35.4 °F 39.2 °F 93% 30.18 in 6.2 mi NW 8.9 mph - N/A Rain Light Rain Showers
3:30 AM 41.0 °F 35.4 °F 39.2 °F 93% 30.18 in 6.2 mi NW 8.9 mph - N/A Rain Light Rain Showers
4:00 AM 41.0 °F 35.4 °F 39.2 °F 93% 30.18 in 6.2 mi NW 8.9 mph - N/A Rain Light Rain Showers
4:30 AM 41.0 °F 35.4 °F 37.4 °F 87% 30.18 in 6.2 mi NW 8.9 mph - N/A Rain Light Rain Showers
5:00 AM 41 °F - 36 °F 76% 30.26 in - NNW 4.5 mph - - Rain Light Rain Showers
5:00 AM 41.0 °F 35.4 °F 37.4 °F 87% 30.18 in 6.2 mi NNW 8.9 mph - N/A   Scattered Clouds
5:30 AM 39.2 °F 33.1 °F 37.4 °F 93% 30.18 in 6.2 mi North 8.9 mph - N/A Rain Light Rain Showers
6:00 AM 39.2 °F 36.0 °F 37.4 °F 93% 30.21 in 6.2 mi NW 4.5 mph - N/A Rain Light Rain Showers
6:30 AM 39.2 °F - 39.2 °F 100% 30.21 in 6.2 mi Variable 2.2 mph - N/A Rain Light Rain Showers
7:00 AM 39.2 °F 34.4 °F 37.4 °F 93% 30.21 in 6.2 mi WNW 6.7 mph - N/A   Scattered Clouds
7:30 AM 39.2 °F 34.4 °F 37.4 °F 93% 30.21 in 6.2 mi WNW 6.7 mph - N/A   Scattered Clouds
8:00 AM 40 °F - 36 °F 80% 30.30 in 31 mi West 4.5 mph - - Rain Light Rain Showers
8:00 AM 39.2 °F 34.4 °F 37.4 °F 93% 30.21 in 6.2 mi WNW 6.7 mph - N/A   Scattered Clouds
8:30 AM 39.2 °F 34.4 °F 37.4 °F 93% 30.21 in 6.2 mi WNW 6.7 mph - N/A   Scattered Clouds
9:00 AM 41.0 °F 38.1 °F 37.4 °F 87% 30.21 in 6.2 mi WNW 4.5 mph - N/A   Scattered Clouds
9:30 AM 41.0 °F 38.1 °F 37.4 °F 87% 30.24 in - NW 4.5 mph - N/A   Clear
10:00 AM 41.0 °F 38.1 °F 39.2 °F 93% 30.24 in - NW 4.5 mph - N/A   Clear
10:30 AM 41.0 °F - 37.4 °F 87% 30.24 in - Variable 2.2 mph - N/A   Clear
11:00 AM 44 °F - 36 °F 65% 30.30 in 31 mi South 2.2 mph - -   Scattered Clouds
11:00 AM 41.0 °F 38.1 °F 37.4 °F 87% 30.24 in - WSW 4.5 mph - N/A   Clear
11:30 AM 42.8 °F - 37.4 °F 81% 30.24 in - SW 2.2 mph - N/A   Clear
12:00 PM 46.4 °F - 37.4 °F 71% 30.21 in - Variable 2.2 mph - N/A   Clear
12:30 PM 44.6 °F - 37.4 °F 76% 30.21 in 6.2 mi Variable 2.2 mph - N/A   Partly Cloudy
1:30 PM 50.0 °F - 37.4 °F 62% 30.21 in 6.2 mi Variable 2.2 mph - N/A   Partly Cloudy
2:00 PM 50 °F - 28 °F 30% 30.24 in 31 mi NNE 2.2 mph - -   Scattered Clouds
2:00 PM 48.2 °F - 35.6 °F 62% 30.21 in 6.2 mi SW 4.5 mph - N/A   Partly Cloudy
2:30 PM 50.0 °F - 33.8 °F 54% 30.18 in 6.2 mi South 6.7 mph - N/A   Partly Cloudy
3:00 PM 50.0 °F - 32.0 °F 50% 30.18 in 6.2 mi SW 4.5 mph - N/A   Partly Cloudy
3:30 PM 50.0 °F - 30.2 °F 47% 30.18 in 6.2 mi SSW 6.7 mph - N/A   Partly Cloudy
4:00 PM 50.0 °F - 30.2 °F 47% 30.18 in 6.2 mi South 4.5 mph - N/A   Partly Cloudy
4:30 PM 50.0 °F - 32.0 °F 50% 30.18 in 6.2 mi South 6.7 mph - N/A   Partly Cloudy
5:00 PM 48 °F - 31 °F 40% 30.22 in 31 mi SE 4.5 mph - -   Clear
5:00 PM 48.2 °F - 32.0 °F 54% 30.18 in 6.2 mi South 6.7 mph - N/A   Partly Cloudy
5:30 PM 48.2 °F - 32.0 °F 54% 30.18 in 6.2 mi South 4.5 mph - N/A   Partly Cloudy
6:00 PM 46.4 °F 44.4 °F 32.0 °F 57% 30.18 in - South 4.5 mph - N/A   Clear
6:30 PM 46.4 °F 44.4 °F 32.0 °F 57% 30.18 in - SE 4.5 mph - N/A   Clear
7:00 PM 44.6 °F 42.3 °F 30.2 °F 57% 30.18 in - SE 4.5 mph - N/A   Clear
7:30 PM 44.6 °F 42.3 °F 30.2 °F 57% 30.18 in - SE 4.5 mph - N/A   Clear
8:00 PM 42 °F - 31 °F 53% 30.25 in - East 2.2 mph - -  
8:00 PM 41.0 °F 38.1 °F 30.2 °F 65% 30.18 in - SE 4.5 mph - N/A   Clear
8:30 PM 37.4 °F 32.2 °F 32.0 °F 81% 30.18 in - SSE 6.7 mph - N/A   Clear
9:00 PM 39.2 °F 34.4 °F 33.8 °F 81% 30.18 in - East 6.7 mph - N/A   Clear
9:30 PM 33.8 °F 27.9 °F 30.2 °F 87% 30.18 in - East 6.7 mph - N/A   Clear
10:00 PM 35.6 °F 30.0 °F 33.8 °F 93% 30.18 in - East 6.7 mph - N/A   Clear
10:30 PM 32.0 °F 27.6 °F 28.4 °F 87% 30.18 in - East 4.5 mph - N/A   Clear
11:00 PM 35 °F - 31 °F 78% 30.28 in - ENE 4.5 mph - -  
11:00 PM 30.2 °F 23.5 °F 28.4 °F 93% 30.18 in - East 6.7 mph - N/A   Clear
11:30 PM 30.2 °F 25.5 °F 28.4 °F 93% 30.18 in - East 4.5 mph - N/A   Clear